Flag for Germany Weather past 2 weeks in Hoyerswerda, Saxony, Germany

Now
53 °F

Overcast.


Feels Like: 53 °F
Forecast: 39 / 50 °F
Wind: 2 mph from Southwest

Location: Cottbus

Current Time: Oct 21, 2014 at 4:43:05 AM

Latest Report: Oct 21, 2014 at 4:00 AM


Visibility: 13 mi

Pressure: 29.87 "Hg

Humidity: 91%

Dew point: 50 °F

Location of HoyerswerdaLocation

Historic Weather in Hoyerswerda — Graph

°F

Hoyerswerda temperature yesterday

Maximum temperature yesterday: 64 °F (at 12:00 AM)
Minimum temperature yesterday: 53 °F (at 8:00 AM)
Average temperature yesterday: 59 °F

Past Weeks' High & Low Weather Summary

 TemperatureHumidityPressure
High76 °F (Oct 9, 3:00 PM)100% (Oct 12, 5:00 AM)30.25 "Hg (Oct 12, 5:00 AM)
Low44 °F (Oct 16, 2:00 AM)49% (Oct 9, 3:00 PM)29.71 "Hg (Oct 15, 4:00 PM)
Average59 °F84%29.90 "Hg
* Reported Oct 6 3:00 AM — Oct 21 3:00 AM, Hoyerswerda, Weather by CustomWeather, © 2014

Note: Actual official high and low records may vary slightly from our data, if they occured in-between our weather recording intervals... More about our weather records

Advertising

Hoyerswerda weather history for previous 24 hours

 ConditionsComfort  
Time TempWeatherWind HumidityBarometerVisibility
3:00 AM
Oct 21
53 °FOvercast.3 mph91%29.87 "Hg13 mi
2:00 AM53 °FOvercast.3 mph91%29.88 "Hg16 mi
1:00 AM54 °FOvercast.2 mph92%29.89 "Hg15 mi
12:00 AM54 °FLow clouds.3 mph93%29.90 "Hg11 mi
11:00 PM
Oct 20
54 °FOvercast.2 mph91%29.91 "Hg14 mi
10:00 PM56 °FDrizzle. Overcast.3 mph88%29.91 "Hg17 mi
9:00 PM55 °FLow clouds.1 mph95%29.91 "Hg11 mi
8:00 PM55 °FLow clouds.2 mph94%29.91 "Hg13 mi
7:00 PM56 °FLow clouds.3 mph92%29.92 "Hg12 mi
6:00 PM60 °FLight rain. Overcast.5 mph71%29.90 "Hg19 mi
5:00 PM61 °FOvercast.5 mph68%29.91 "Hg31 mi
4:00 PM62 °FOvercast.5 mph66%29.91 "Hg31 mi
3:00 PM62 °FOvercast.5 mph64%29.92 "Hg34 mi
2:00 PM62 °FOvercast.7 mph63%29.92 "Hg31 mi
1:00 PM63 °FOvercast.7 mph63%29.93 "Hg28 mi
12:00 PM60 °FOvercast.6 mph69%29.95 "Hg28 mi
11:00 AM60 °FOvercast.7 mph71%29.95 "Hg25 mi
10:00 AM58 °FOvercast.6 mph78%29.95 "Hg19 mi
9:00 AM56 °FLow clouds.3 mph93%29.94 "Hg16 mi
8:00 AM53 °FOvercast.2 mph96%29.92 "Hg19 mi
7:00 AM54 °FClear.3 mph95%29.92 "Hg31 mi
5:00 AM57 °FOvercast.3 mph92%29.93 "Hg31 mi
4:00 AM57 °FOvercast.3 mph92%29.93 "Hg37 mi
Weather by CustomWeather, © 2014

See weather overviewHow to use our weather pages